Powrót do katalogu

ONEWEB-0373

AktywnyŁącznośćPO
NORAD 49299·PAYLOAD·🇬🇧 United Kingdom

Wystrzelony Oct 14, 2021 z Vostochny Cosmodrome

Loading…

Następne Przeloty (najbliższe 24 godziny)

TLE

ŚwieżeSource: CelesTrak SupGP

Epoka: Sep 14, 2026, 15:56 UTC

1 49299C 21090W   26257.66442546 -.00002725  00000+0 -67090-2 0  2572
2 49299  87.9141 256.5927 0001988  92.4340 306.1662 13.20776381    12

Śledź ONEWEB-0373 w czasie rzeczywistym z AllMySat

Download on the App Store